contact:dominique.lefevre@mio.osupytheas.fr, maurice.libes@osupytheas.fr, didier.mallarino@osupytheas.fr
Project:EMSO http://www.emso-fr.org/EMSO-France
Depth: 2436.0 m
Title:EMSO Ligure Ouest : Data MII capteur MICROCAT
DateTime_Computer,Latitude,Longitude,Temperature,Conductivity,Pressure,DateTime_Instrument
DateTime_Computer,Latitude,Longitude,degC,S m-1,dbar,DateTime_Instrument
2020-01-21T00:02:29Z,42.805,6.029,13.2960,4.59961,2469.97,2020-1-21T02:03:02Z
2020-01-21T00:05:32Z,42.805,6.029,13.2965,4.59963,2469.993,2020-1-21T02:06:05Z
2020-01-21T00:08:35Z,42.805,6.029,13.2961,4.59961,2469.97,2020-1-21T02:09:08Z
2020-01-21T00:11:39Z,42.805,6.029,13.2960,4.59960,2470.04,2020-1-21T02:12:12Z
2020-01-21T00:14:42Z,42.805,6.029,13.2961,4.59960,2470.03,2020-1-21T02:15:15Z
2020-01-21T00:17:45Z,42.805,6.029,13.2961,4.59959,2470.03,2020-1-21T02:18:18Z
2020-01-21T00:20:48Z,42.805,6.029,13.2960,4.59960,2470.017,2020-1-21T02:21:21Z
2020-01-21T00:23:52Z,42.805,6.029,13.2964,4.59962,2469.993,2020-1-21T02:24:25Z
2020-01-21T00:26:55Z,42.805,6.029,13.2963,4.59960,2470.04,2020-1-21T02:27:28Z
2020-01-21T00:29:58Z,42.805,6.029,13.2964,4.59961,2470.03,2020-1-21T02:30:31Z
2020-01-21T00:33:01Z,42.805,6.029,13.2961,4.59961,2470.017,2020-1-21T02:33:34Z
2020-01-21T00:36:05Z,42.805,6.029,13.2963,4.59964,2470.007,2020-1-21T02:36:38Z
2020-01-21T00:39:08Z,42.805,6.029,13.2958,4.59961,2470.03,2020-1-21T02:39:41Z
2020-01-21T00:42:11Z,42.805,6.029,13.2964,4.59960,2470.053,2020-1-21T02:42:44Z
2020-01-21T00:45:14Z,42.805,6.029,13.2964,4.59961,2470.03,2020-1-21T02:45:47Z
2020-01-21T00:48:18Z,42.805,6.029,13.2963,4.59960,2469.993,2020-1-21T02:48:50Z
2020-01-21T00:51:21Z,42.805,6.029,13.2961,4.59960,2470.053,2020-1-21T02:51:54Z
2020-01-21T00:54:24Z,42.805,6.029,13.2958,4.59961,2470.017,2020-1-21T02:54:57Z
2020-01-21T00:57:27Z,42.805,6.029,13.2961,4.59961,2470.017,2020-1-21T02:58:00Z
2020-01-21T01:00:31Z,42.805,6.029,13.2961,4.59961,2470.017,2020-1-21T03:01:04Z
2020-01-21T01:03:34Z,42.805,6.029,13.2962,4.59961,2470.017,2020-1-21T03:04:07Z
2020-01-21T01:06:37Z,42.805,6.029,13.2962,4.59960,2470.077,2020-1-21T03:07:10Z
2020-01-21T01:09:41Z,42.805,6.029,13.2961,4.59960,2470.04,2020-1-21T03:10:14Z
2020-01-21T01:12:44Z,42.805,6.029,13.2961,4.59960,2469.993,2020-1-21T03:13:17Z
2020-01-21T01:15:47Z,42.805,6.029,13.2961,4.59961,2470.04,2020-1-21T03:16:20Z
2020-01-21T01:18:50Z,42.805,6.029,13.2961,4.59960,2470.017,2020-1-21T03:19:23Z
2020-01-21T01:21:53Z,42.805,6.029,13.2966,4.59960,2470.03,2020-1-21T03:22:26Z
2020-01-21T01:24:57Z,42.805,6.029,13.2963,4.59959,2470.04,2020-1-21T03:25:30Z
2020-01-21T01:28:00Z,42.805,6.029,13.2961,4.59961,2470.049,2020-1-21T03:28:33Z
2020-01-21T01:31:03Z,42.805,6.029,13.2960,4.59961,2470.077,2020-1-21T03:31:36Z
2020-01-21T01:34:07Z,42.805,6.029,13.2961,4.59960,2470.026,2020-1-21T03:34:39Z
2020-01-21T01:37:10Z,42.805,6.029,13.2964,4.59960,2470.053,2020-1-21T03:37:43Z
2020-01-21T01:40:13Z,42.805,6.029,13.2963,4.59961,2470.063,2020-1-21T03:40:46Z
2020-01-21T01:43:16Z,42.805,6.029,13.2963,4.59961,2470.04,2020-1-21T03:43:49Z
2020-01-21T01:46:19Z,42.805,6.029,13.2963,4.59960,2470.073,2020-1-21T03:46:52Z
2020-01-21T01:49:23Z,42.805,6.029,13.2960,4.59961,2470.053,2020-1-21T03:49:56Z
2020-01-21T01:52:26Z,42.805,6.029,13.2961,4.59961,2470.053,2020-1-21T03:52:59Z
2020-01-21T01:55:29Z,42.805,6.029,13.2964,4.59960,2470.04,2020-1-21T03:56:02Z
2020-01-21T01:58:32Z,42.805,6.029,13.2959,4.59963,2470.063,2020-1-21T03:59:05Z
2020-01-21T02:01:36Z,42.805,6.029,13.2961,4.59961,2470.04,2020-1-21T04:02:09Z
2020-01-21T02:04:39Z,42.805,6.029,13.2962,4.59961,2470.04,2020-1-21T04:05:12Z
2020-01-21T02:07:42Z,42.805,6.029,13.2964,4.59961,2470.063,2020-1-21T04:08:15Z
2020-01-21T02:10:45Z,42.805,6.029,13.2964,4.59960,2470.1,2020-1-21T04:11:18Z
2020-01-21T02:13:48Z,42.805,6.029,13.2963,4.59963,2470.063,2020-1-21T04:14:21Z
2020-01-21T02:16:52Z,42.805,6.029,13.2964,4.59960,2470.063,2020-1-21T04:17:25Z
2020-01-21T02:19:55Z,42.805,6.029,13.2961,4.59960,2470.087,2020-1-21T04:20:28Z
2020-01-21T02:22:58Z,42.805,6.029,13.2963,4.59961,2470.063,2020-1-21T04:23:31Z
2020-01-21T02:26:01Z,42.805,6.029,13.2963,4.59961,2470.1,2020-1-21T04:26:34Z
2020-01-21T02:29:05Z,42.805,6.029,13.2961,4.59961,2470.063,2020-1-21T04:29:38Z
2020-01-21T02:32:08Z,42.805,6.029,13.2961,4.59961,2470.124,2020-1-21T04:32:41Z
2020-01-21T02:35:11Z,42.805,6.029,13.2960,4.59961,2470.1,2020-1-21T04:35:44Z
2020-01-21T02:38:14Z,42.805,6.029,13.2964,4.59960,2470.063,2020-1-21T04:38:47Z
2020-01-21T02:41:18Z,42.805,6.029,13.2961,4.59961,2470.096,2020-1-21T04:41:51Z
2020-01-21T02:44:21Z,42.805,6.029,13.2960,4.59961,2470.087,2020-1-21T04:44:54Z
2020-01-21T02:47:24Z,42.805,6.029,13.2963,4.59962,2470.11,2020-1-21T04:47:57Z
2020-01-21T02:50:27Z,42.805,6.029,13.2960,4.59960,2470.1,2020-1-21T04:51:00Z
2020-01-21T02:53:30Z,42.805,6.029,13.2964,4.59965,2470.087,2020-1-21T04:54:03Z
2020-01-21T02:56:34Z,42.805,6.029,13.2961,4.59961,2470.11,2020-1-21T04:57:06Z
2020-01-21T02:59:37Z,42.805,6.029,13.2961,4.59961,2470.124,2020-1-21T05:00:10Z
2020-01-21T03:02:40Z,42.805,6.029,13.2967,4.59961,2470.11,2020-1-21T05:03:13Z
2020-01-21T03:05:43Z,42.805,6.029,13.2961,4.59961,2470.133,2020-1-21T05:06:16Z
2020-01-21T03:08:47Z,42.805,6.029,13.2964,4.59961,2470.11,2020-1-21T05:09:20Z
2020-01-21T03:11:50Z,42.805,6.029,13.2963,4.59961,2470.087,2020-1-21T05:12:23Z
2020-01-21T03:14:53Z,42.805,6.029,13.2960,4.59960,2470.1,2020-1-21T05:15:26Z
2020-01-21T03:17:56Z,42.805,6.029,13.2961,4.59961,2470.147,2020-1-21T05:18:29Z
2020-01-21T03:20:59Z,42.805,6.029,13.2965,4.59963,2470.133,2020-1-21T05:21:32Z
2020-01-21T03:24:03Z,42.805,6.029,13.2963,4.59962,2470.156,2020-1-21T05:24:36Z
2020-01-21T03:27:06Z,42.805,6.029,13.2958,4.59961,2470.11,2020-1-21T05:27:39Z
2020-01-21T03:30:09Z,42.805,6.029,13.2964,4.59961,2470.147,2020-1-21T05:30:42Z
2020-01-21T03:33:12Z,42.805,6.029,13.2961,4.59961,2470.124,2020-1-21T05:33:45Z
2020-01-21T03:36:16Z,42.805,6.029,13.2965,4.59961,2470.133,2020-1-21T05:36:49Z
2020-01-21T03:39:19Z,42.805,6.029,13.2964,4.59961,2470.147,2020-1-21T05:39:52Z
2020-01-21T03:42:22Z,42.805,6.029,13.2965,4.59961,2470.147,2020-1-21T05:42:55Z
2020-01-21T03:45:25Z,42.805,6.029,13.2962,4.59961,2470.124,2020-1-21T05:45:58Z
2020-01-21T03:48:29Z,42.805,6.029,13.2960,4.59961,2470.1,2020-1-21T05:49:02Z
2020-01-21T03:51:32Z,42.805,6.029,13.2960,4.59961,2470.133,2020-1-21T05:52:05Z
2020-01-21T03:54:35Z,42.805,6.029,13.2964,4.59961,2470.156,2020-1-21T05:55:08Z
2020-01-21T03:57:38Z,42.805,6.029,13.2962,4.59961,2470.133,2020-1-21T05:58:11Z
2020-01-21T04:00:42Z,42.805,6.029,13.2961,4.59960,2470.147,2020-1-21T06:01:15Z
2020-01-21T04:03:45Z,42.805,6.029,13.2962,4.59961,2470.147,2020-1-21T06:04:18Z
2020-01-21T04:06:48Z,42.805,6.029,13.2964,4.59961,2470.133,2020-1-21T06:07:21Z
2020-01-21T04:09:52Z,42.805,6.029,13.2961,4.59961,2470.124,2020-1-21T06:10:24Z
2020-01-21T04:12:55Z,42.805,6.029,13.2964,4.59961,2470.156,2020-1-21T06:13:28Z
2020-01-21T04:15:58Z,42.805,6.029,13.2961,4.59961,2470.133,2020-1-21T06:16:31Z
2020-01-21T04:19:01Z,42.805,6.029,13.2963,4.59961,2470.133,2020-1-21T06:19:34Z
2020-01-21T04:22:05Z,42.805,6.029,13.2961,4.59961,2470.147,2020-1-21T06:22:38Z
2020-01-21T04:25:08Z,42.805,6.029,13.2959,4.59962,2470.087,2020-1-21T06:25:41Z
2020-01-21T04:28:11Z,42.805,6.029,13.2962,4.59961,2470.147,2020-1-21T06:28:44Z
2020-01-21T04:31:14Z,42.805,6.029,13.2962,4.59961,2470.133,2020-1-21T06:31:47Z
2020-01-21T04:34:17Z,42.805,6.029,13.2962,4.59961,2470.143,2020-1-21T06:34:50Z
2020-01-21T04:37:21Z,42.805,6.029,13.2965,4.59962,2470.147,2020-1-21T06:37:54Z
2020-01-21T04:40:24Z,42.805,6.029,13.2961,4.59961,2470.156,2020-1-21T06:40:57Z
2020-01-21T04:43:27Z,42.805,6.029,13.2957,4.59961,2470.156,2020-1-21T06:44:00Z
2020-01-21T04:46:30Z,42.805,6.029,13.2966,4.59960,2470.156,2020-1-21T06:47:03Z
2020-01-21T04:49:34Z,42.805,6.029,13.2962,4.59962,2470.133,2020-1-21T06:50:07Z
2020-01-21T04:52:37Z,42.805,6.029,13.2964,4.59961,2470.194,2020-1-21T06:53:10Z
2020-01-21T04:55:40Z,42.805,6.029,13.2961,4.59961,2470.133,2020-1-21T06:56:13Z
2020-01-21T04:58:43Z,42.805,6.029,13.2962,4.59961,2470.171,2020-1-21T06:59:16Z
2020-01-21T05:01:47Z,42.805,6.029,13.2963,4.59961,2470.18,2020-1-21T07:02:20Z
2020-01-21T05:04:50Z,42.805,6.029,13.2963,4.59961,2470.133,2020-1-21T07:05:23Z
2020-01-21T05:07:53Z,42.805,6.029,13.2963,4.59961,2470.133,2020-1-21T07:08:26Z
2020-01-21T05:10:56Z,42.805,6.029,13.2960,4.59961,2470.203,2020-1-21T07:11:29Z
2020-01-21T05:14:00Z,42.805,6.029,13.2964,4.59961,2470.156,2020-1-21T07:14:33Z
2020-01-21T05:17:03Z,42.805,6.029,13.2965,4.59961,2470.156,2020-1-21T07:17:36Z
2020-01-21T05:20:06Z,42.805,6.029,13.2960,4.59961,2470.194,2020-1-21T07:20:39Z
2020-01-21T05:23:09Z,42.805,6.029,13.2961,4.59961,2470.156,2020-1-21T07:23:42Z
2020-01-21T05:26:12Z,42.805,6.029,13.2962,4.59961,2470.18,2020-1-21T07:26:45Z
2020-01-21T05:29:16Z,42.805,6.029,13.2961,4.59961,2470.171,2020-1-21T07:29:49Z
2020-01-21T05:32:20Z,42.805,6.029,13.2964,4.59961,2470.133,2020-1-21T07:32:53Z
2020-01-21T05:35:23Z,42.805,6.029,13.2963,4.59961,2470.133,2020-1-21T07:35:56Z
2020-01-21T05:38:26Z,42.805,6.029,13.2962,4.59961,2470.194,2020-1-21T07:38:59Z
2020-01-21T05:41:29Z,42.805,6.029,13.2961,4.59961,2470.156,2020-1-21T07:42:02Z
2020-01-21T05:44:33Z,42.805,6.029,13.2967,4.59961,2470.156,2020-1-21T07:45:06Z
2020-01-21T05:47:36Z,42.805,6.029,13.2964,4.59961,2470.11,2020-1-21T07:48:09Z
2020-01-21T05:50:39Z,42.805,6.029,13.2962,4.59961,2470.133,2020-1-21T07:51:12Z
2020-01-21T05:53:42Z,42.805,6.029,13.2962,4.59961,2470.133,2020-1-21T07:54:15Z
2020-01-21T05:56:46Z,42.805,6.029,13.2966,4.59961,2470.171,2020-1-21T07:57:19Z
2020-01-21T05:59:49Z,42.805,6.029,13.2961,4.59961,2470.133,2020-1-21T08:00:22Z
2020-01-21T06:02:52Z,42.805,6.029,13.2961,4.59961,2470.18,2020-1-21T08:03:25Z
2020-01-21T06:05:55Z,42.805,6.029,13.2958,4.59961,2470.11,2020-1-21T08:06:28Z
2020-01-21T06:08:59Z,42.805,6.029,13.2964,4.59961,2470.147,2020-1-21T08:09:32Z
2020-01-21T06:12:02Z,42.805,6.029,13.2965,4.59961,2470.171,2020-1-21T08:12:35Z
2020-01-21T06:15:05Z,42.805,6.029,13.2964,4.59962,2470.119,2020-1-21T08:15:38Z
2020-01-21T06:18:08Z,42.805,6.029,13.2964,4.59961,2470.156,2020-1-21T08:18:41Z
2020-01-21T06:21:12Z,42.805,6.029,13.2961,4.59961,2470.124,2020-1-21T08:21:45Z
2020-01-21T06:24:15Z,42.805,6.029,13.2960,4.59962,2470.171,2020-1-21T08:24:48Z
2020-01-21T06:27:19Z,42.805,6.029,13.2960,4.59961,2470.156,2020-1-21T08:27:52Z
2020-01-21T06:30:22Z,42.805,6.029,13.2964,4.59961,2470.156,2020-1-21T08:30:55Z
2020-01-21T06:33:25Z,42.805,6.029,13.2965,4.59962,2470.133,2020-1-21T08:33:58Z
2020-01-21T06:36:28Z,42.805,6.029,13.2961,4.59962,2470.133,2020-1-21T08:37:01Z
2020-01-21T06:39:32Z,42.805,6.029,13.2964,4.59961,2470.156,2020-1-21T08:40:05Z
2020-01-21T06:42:35Z,42.805,6.029,13.2965,4.59961,2470.147,2020-1-21T08:43:08Z
2020-01-21T06:45:38Z,42.805,6.029,13.2964,4.59961,2470.133,2020-1-21T08:46:11Z
2020-01-21T06:48:41Z,42.805,6.029,13.2964,4.59961,2470.156,2020-1-21T08:49:14Z
2020-01-21T06:51:45Z,42.805,6.029,13.2964,4.59961,2470.156,2020-1-21T08:52:18Z
2020-01-21T06:54:48Z,42.805,6.029,13.2964,4.59961,2470.133,2020-1-21T08:55:21Z
2020-01-21T06:57:51Z,42.805,6.029,13.2961,4.59961,2470.133,2020-1-21T08:58:24Z
2020-01-21T07:00:54Z,42.805,6.029,13.2961,4.59962,2470.11,2020-1-21T09:01:27Z
2020-01-21T07:03:58Z,42.805,6.029,13.2965,4.59961,2470.133,2020-1-21T09:04:31Z
2020-01-21T07:07:01Z,42.805,6.029,13.2959,4.59962,2470.11,2020-1-21T09:07:34Z
2020-01-21T07:10:04Z,42.805,6.029,13.2961,4.59961,2470.171,2020-1-21T09:10:37Z
2020-01-21T07:13:07Z,42.805,6.029,13.2966,4.59961,2470.156,2020-1-21T09:13:40Z
2020-01-21T07:16:11Z,42.805,6.029,13.2964,4.59961,2470.133,2020-1-21T09:16:44Z
2020-01-21T07:19:14Z,42.805,6.029,13.2962,4.59961,2470.147,2020-1-21T09:19:47Z
2020-01-21T07:22:17Z,42.805,6.029,13.2967,4.59961,2470.147,2020-1-21T09:22:50Z
2020-01-21T07:25:20Z,42.805,6.029,13.2965,4.59961,2470.11,2020-1-21T09:25:53Z
2020-01-21T07:28:24Z,42.805,6.029,13.2961,4.59961,2470.147,2020-1-21T09:28:57Z
2020-01-21T07:31:27Z,42.805,6.029,13.2961,4.59962,2470.171,2020-1-21T09:32:00Z
2020-01-21T07:34:30Z,42.805,6.029,13.2963,4.59962,2470.124,2020-1-21T09:35:03Z
2020-01-21T07:37:33Z,42.805,6.029,13.2963,4.59962,2470.124,2020-1-21T09:38:06Z
2020-01-21T07:40:37Z,42.805,6.029,13.2962,4.59961,2470.133,2020-1-21T09:41:10Z
2020-01-21T07:43:40Z,42.805,6.029,13.2960,4.59961,2470.133,2020-1-21T09:44:13Z
2020-01-21T07:46:43Z,42.805,6.029,13.2967,4.59961,2470.156,2020-1-21T09:47:16Z
2020-01-21T07:49:46Z,42.805,6.029,13.2962,4.59962,2470.147,2020-1-21T09:50:19Z
2020-01-21T07:52:50Z,42.805,6.029,13.2963,4.59961,2470.087,2020-1-21T09:53:22Z
2020-01-21T07:55:53Z,42.805,6.029,13.2964,4.59961,2470.133,2020-1-21T09:56:26Z
2020-01-21T07:58:56Z,42.805,6.029,13.2960,4.59961,2470.11,2020-1-21T09:59:29Z
2020-01-21T08:01:59Z,42.805,6.029,13.2964,4.59962,2470.11,2020-1-21T10:02:32Z
2020-01-21T08:05:03Z,42.805,6.029,13.2962,4.59963,2470.1,2020-1-21T10:05:36Z
2020-01-21T08:08:06Z,42.805,6.029,13.2964,4.59963,2470.147,2020-1-21T10:08:39Z
2020-01-21T08:11:09Z,42.805,6.029,13.2961,4.59961,2470.11,2020-1-21T10:11:42Z
2020-01-21T08:14:12Z,42.805,6.029,13.2961,4.59962,2470.1,2020-1-21T10:14:45Z
2020-01-21T08:17:16Z,42.805,6.029,13.2962,4.59962,2470.11,2020-1-21T10:17:49Z
2020-01-21T08:20:19Z,42.805,6.029,13.2961,4.59964,2470.124,2020-1-21T10:20:52Z
2020-01-21T08:23:22Z,42.805,6.029,13.2967,4.59961,2470.124,2020-1-21T10:23:55Z
2020-01-21T08:26:25Z,42.805,6.029,13.2964,4.59962,2470.087,2020-1-21T10:26:58Z
2020-01-21T08:29:29Z,42.805,6.029,13.2967,4.59961,2470.147,2020-1-21T10:30:02Z
2020-01-21T08:32:32Z,42.805,6.029,13.2965,4.59961,2470.077,2020-1-21T10:33:05Z
2020-01-21T08:35:35Z,42.805,6.029,13.2966,4.59961,2470.1,2020-1-21T10:36:08Z
2020-01-21T08:38:38Z,42.805,6.029,13.2958,4.59961,2470.1,2020-1-21T10:39:11Z
2020-01-21T08:41:42Z,42.805,6.029,13.2963,4.59962,2470.087,2020-1-21T10:42:14Z
2020-01-21T08:44:45Z,42.805,6.029,13.2964,4.59961,2470.087,2020-1-21T10:45:18Z
2020-01-21T08:47:48Z,42.805,6.029,13.2963,4.59961,2470.087,2020-1-21T10:48:21Z
2020-01-21T08:50:52Z,42.805,6.029,13.2961,4.59962,2470.087,2020-1-21T10:51:24Z
2020-01-21T08:53:55Z,42.805,6.029,13.2964,4.59961,2470.11,2020-1-21T10:54:28Z
2020-01-21T08:56:58Z,42.805,6.029,13.2960,4.59961,2470.124,2020-1-21T10:57:31Z
2020-01-21T09:00:01Z,42.805,6.029,13.2961,4.59961,2470.11,2020-1-21T11:00:34Z
2020-01-21T09:03:05Z,42.805,6.029,13.2963,4.59961,2470.156,2020-1-21T11:03:38Z
2020-01-21T09:06:08Z,42.805,6.029,13.2964,4.59962,2470.133,2020-1-21T11:06:41Z
2020-01-21T09:09:11Z,42.805,6.029,13.2965,4.59961,2470.11,2020-1-21T11:09:44Z
2020-01-21T09:12:15Z,42.805,6.029,13.2964,4.59961,2470.133,2020-1-21T11:12:47Z
2020-01-21T09:15:18Z,42.805,6.029,13.2961,4.59962,2470.073,2020-1-21T11:15:51Z
2020-01-21T09:18:21Z,42.805,6.029,13.2967,4.59961,2470.063,2020-1-21T11:18:54Z
2020-01-21T09:21:24Z,42.805,6.029,13.2967,4.59962,2470.147,2020-1-21T11:21:57Z
2020-01-21T09:24:28Z,42.805,6.029,13.2965,4.59961,2470.087,2020-1-21T11:25:00Z
2020-01-21T09:27:31Z,42.805,6.029,13.2964,4.59961,2470.11,2020-1-21T11:28:04Z
2020-01-21T09:30:34Z,42.805,6.029,13.2964,4.59961,2470.1,2020-1-21T11:31:07Z
2020-01-21T09:33:37Z,42.805,6.029,13.2962,4.59962,2470.087,2020-1-21T11:34:10Z
2020-01-21T09:36:41Z,42.805,6.029,13.2963,4.59963,2470.087,2020-1-21T11:37:14Z
2020-01-21T09:39:44Z,42.805,6.029,13.2962,4.59961,2470.087,2020-1-21T11:40:17Z
2020-01-21T09:42:47Z,42.805,6.029,13.2965,4.59963,2470.077,2020-1-21T11:43:20Z
2020-01-21T09:45:51Z,42.805,6.029,13.2964,4.59962,2470.087,2020-1-21T11:46:24Z
2020-01-21T09:48:54Z,42.805,6.029,13.2964,4.59963,2470.063,2020-1-21T11:49:27Z
2020-01-21T09:51:57Z,42.805,6.029,13.2964,4.59962,2470.1,2020-1-21T11:52:30Z
2020-01-21T09:55:00Z,42.805,6.029,13.2964,4.59962,2470.063,2020-1-21T11:55:33Z
2020-01-21T09:58:04Z,42.805,6.029,13.2963,4.59963,2470.063,2020-1-21T11:58:37Z
2020-01-21T10:01:07Z,42.805,6.029,13.2964,4.59962,2470.077,2020-1-21T12:01:40Z
2020-01-21T10:04:10Z,42.805,6.029,13.2964,4.59961,2470.124,2020-1-21T12:04:43Z
2020-01-21T10:07:13Z,42.805,6.029,13.2964,4.59961,2470.087,2020-1-21T12:07:46Z
2020-01-21T10:10:17Z,42.805,6.029,13.2960,4.59962,2470.063,2020-1-21T12:10:50Z
2020-01-21T10:13:20Z,42.805,6.029,13.2965,4.59963,2470.087,2020-1-21T12:13:53Z
2020-01-21T10:16:23Z,42.805,6.029,13.2965,4.59961,2470.087,2020-1-21T12:16:56Z
2020-01-21T10:19:26Z,42.805,6.029,13.2960,4.59962,2470.11,2020-1-21T12:19:59Z
2020-01-21T10:22:30Z,42.805,6.029,13.2961,4.59961,2470.077,2020-1-21T12:23:03Z
2020-01-21T10:25:33Z,42.805,6.029,13.2966,4.59961,2470.063,2020-1-21T12:26:06Z
2020-01-21T10:28:36Z,42.805,6.029,13.2962,4.59961,2470.063,2020-1-21T12:29:09Z
2020-01-21T10:31:39Z,42.805,6.029,13.2962,4.59961,2470.1,2020-1-21T12:32:12Z
2020-01-21T10:34:43Z,42.805,6.029,13.2964,4.59963,2470.077,2020-1-21T12:35:16Z
2020-01-21T10:37:46Z,42.805,6.029,13.2968,4.59962,2470.077,2020-1-21T12:38:19Z
2020-01-21T10:40:49Z,42.805,6.029,13.2964,4.59962,2470.063,2020-1-21T12:41:22Z
2020-01-21T10:43:52Z,42.805,6.029,13.2964,4.59961,2470.1,2020-1-21T12:44:25Z
2020-01-21T10:46:56Z,42.805,6.029,13.2967,4.59961,2470.04,2020-1-21T12:47:29Z
2020-01-21T10:49:59Z,42.805,6.029,13.2963,4.59961,2470.063,2020-1-21T12:50:32Z
2020-01-21T10:53:02Z,42.805,6.029,13.2965,4.59963,2470.063,2020-1-21T12:53:35Z
2020-01-21T10:56:06Z,42.805,6.029,13.2961,4.59962,2470.087,2020-1-21T12:56:38Z
2020-01-21T10:59:09Z,42.805,6.029,13.2962,4.59961,2470.077,2020-1-21T12:59:42Z
2020-01-21T11:02:12Z,42.805,6.029,13.2967,4.59961,2470.087,2020-1-21T13:02:45Z
2020-01-21T11:05:15Z,42.805,6.029,13.2964,4.59961,2470.003,2020-1-21T13:05:48Z
2020-01-21T11:08:18Z,42.805,6.029,13.2963,4.59963,2470.063,2020-1-21T13:08:51Z
2020-01-21T11:11:22Z,42.805,6.029,13.2968,4.59961,2470.063,2020-1-21T13:11:55Z
2020-01-21T11:14:25Z,42.805,6.029,13.2964,4.59961,2470.1,2020-1-21T13:14:58Z
2020-01-21T11:17:28Z,42.805,6.029,13.2965,4.59961,2470.04,2020-1-21T13:18:01Z
2020-01-21T11:20:31Z,42.805,6.029,13.2964,4.59961,2470.04,2020-1-21T13:21:04Z
2020-01-21T11:23:35Z,42.805,6.029,13.2966,4.59963,2470.04,2020-1-21T13:24:08Z
2020-01-21T11:26:38Z,42.805,6.029,13.2961,4.59961,2470.077,2020-1-21T13:27:11Z
2020-01-21T11:29:41Z,42.805,6.029,13.2964,4.59962,2470.04,2020-1-21T13:30:14Z
2020-01-21T11:32:44Z,42.805,6.029,13.2967,4.59962,2470.087,2020-1-21T13:33:17Z
2020-01-21T11:35:47Z,42.805,6.029,13.2963,4.59962,2470.053,2020-1-21T13:36:20Z
2020-01-21T11:38:51Z,42.805,6.029,13.2964,4.59961,2470.04,2020-1-21T13:39:24Z
2020-01-21T11:41:54Z,42.805,6.029,13.2964,4.59961,2470.053,2020-1-21T13:42:27Z
2020-01-21T11:44:57Z,42.805,6.029,13.2961,4.59961,2470.053,2020-1-21T13:45:30Z
2020-01-21T11:48:00Z,42.805,6.029,13.2961,4.59961,2470.063,2020-1-21T13:48:33Z
2020-01-21T11:51:04Z,42.805,6.029,13.2962,4.59961,2470.077,2020-1-21T13:51:37Z
2020-01-21T11:54:07Z,42.805,6.029,13.2963,4.59962,2470.077,2020-1-21T13:54:40Z
2020-01-21T11:57:10Z,42.805,6.029,13.2962,4.59961,2470.063,2020-1-21T13:57:43Z
2020-01-21T12:00:13Z,42.805,6.029,13.2967,4.59961,2470.017,2020-1-21T14:00:46Z
2020-01-21T12:03:17Z,42.805,6.029,13.2964,4.59961,2470.03,2020-1-21T14:03:49Z
2020-01-21T12:06:20Z,42.805,6.029,13.2965,4.59961,2470.04,2020-1-21T14:06:53Z
2020-01-21T12:09:23Z,42.805,6.029,13.2961,4.59961,2470.04,2020-1-21T14:09:56Z
2020-01-21T12:12:26Z,42.805,6.029,13.2963,4.59961,2470.03,2020-1-21T14:12:59Z
2020-01-21T12:15:29Z,42.805,6.029,13.2967,4.59961,2469.993,2020-1-21T14:16:02Z
2020-01-21T12:18:33Z,42.805,6.029,13.2962,4.59961,2470.063,2020-1-21T14:19:06Z
2020-01-21T12:21:36Z,42.805,6.029,13.2970,4.59962,2470.017,2020-1-21T14:22:09Z
2020-01-21T12:24:39Z,42.805,6.029,13.2964,4.59961,2470.04,2020-1-21T14:25:12Z
2020-01-21T12:27:42Z,42.805,6.029,13.2962,4.59962,2470.04,2020-1-21T14:28:15Z
2020-01-21T12:30:46Z,42.805,6.029,13.2964,4.59962,2470.077,2020-1-21T14:31:19Z
2020-01-21T12:33:49Z,42.805,6.029,13.2961,4.59962,2470.04,2020-1-21T14:34:22Z
2020-01-21T12:36:52Z,42.805,6.029,13.2965,4.59962,2470.063,2020-1-21T14:37:25Z
2020-01-21T12:39:55Z,42.805,6.029,13.2963,4.59961,2470.053,2020-1-21T14:40:28Z
2020-01-21T12:42:58Z,42.805,6.029,13.2966,4.59961,2470.017,2020-1-21T14:43:31Z
2020-01-21T12:46:02Z,42.805,6.029,13.2964,4.59962,2470.087,2020-1-21T14:46:35Z
2020-01-21T12:49:05Z,42.805,6.029,13.2961,4.59963,2470.087,2020-1-21T14:49:38Z
2020-01-21T12:52:08Z,42.805,6.029,13.2967,4.59961,2470.04,2020-1-21T14:52:41Z
2020-01-21T12:55:11Z,42.805,6.029,13.2967,4.59962,2470.04,2020-1-21T14:55:44Z
2020-01-21T12:58:15Z,42.805,6.029,13.2964,4.59962,2470.063,2020-1-21T14:58:48Z
2020-01-21T13:01:18Z,42.805,6.029,13.2960,4.59961,2470.04,2020-1-21T15:01:51Z
2020-01-21T13:04:21Z,42.805,6.029,13.2961,4.59961,2470.087,2020-1-21T15:04:54Z
2020-01-21T13:07:24Z,42.805,6.029,13.2967,4.59961,2470.063,2020-1-21T15:07:57Z
2020-01-21T13:10:28Z,42.805,6.029,13.2962,4.59961,2470.04,2020-1-21T15:11:01Z
2020-01-21T13:13:31Z,42.805,6.029,13.2964,4.59962,2470.063,2020-1-21T15:14:04Z
2020-01-21T13:16:34Z,42.805,6.029,13.2960,4.59962,2470.04,2020-1-21T15:17:07Z
2020-01-21T13:19:37Z,42.805,6.029,13.2964,4.59962,2470.04,2020-1-21T15:20:10Z
2020-01-21T13:22:41Z,42.805,6.029,13.2964,4.59962,2470.04,2020-1-21T15:23:14Z
2020-01-21T13:25:44Z,42.805,6.029,13.2963,4.59961,2470.077,2020-1-21T15:26:17Z
2020-01-21T13:28:47Z,42.805,6.029,13.2964,4.59961,2470.077,2020-1-21T15:29:20Z
2020-01-21T13:31:50Z,42.805,6.029,13.2966,4.59961,2470.053,2020-1-21T15:32:23Z
2020-01-21T13:34:54Z,42.805,6.029,13.2965,4.59961,2470.063,2020-1-21T15:35:27Z
2020-01-21T13:37:57Z,42.805,6.029,13.2967,4.59961,2470.087,2020-1-21T15:38:30Z
2020-01-21T13:41:00Z,42.805,6.029,13.2962,4.59961,2470.063,2020-1-21T15:41:33Z
2020-01-21T13:44:03Z,42.805,6.029,13.2963,4.59961,2470.063,2020-1-21T15:44:36Z
2020-01-21T13:47:07Z,42.805,6.029,13.2964,4.59961,2470.053,2020-1-21T15:47:40Z
2020-01-21T13:50:10Z,42.805,6.029,13.2967,4.59961,2470.063,2020-1-21T15:50:43Z
2020-01-21T13:53:13Z,42.805,6.029,13.2967,4.59961,2470.04,2020-1-21T15:53:46Z
2020-01-21T13:56:16Z,42.805,6.029,13.2966,4.59962,2470.077,2020-1-21T15:56:49Z
2020-01-21T13:59:19Z,42.805,6.029,13.2961,4.59961,2470.04,2020-1-21T15:59:52Z
2020-01-21T14:02:23Z,42.805,6.029,13.2966,4.59962,2470.04,2020-1-21T16:02:56Z
2020-01-21T14:05:26Z,42.805,6.029,13.2966,4.59963,2470.087,2020-1-21T16:05:59Z
2020-01-21T14:08:29Z,42.805,6.029,13.2964,4.59962,2470.04,2020-1-21T16:09:02Z
2020-01-21T14:11:33Z,42.805,6.029,13.2964,4.59961,2470.087,2020-1-21T16:12:05Z
2020-01-21T14:14:36Z,42.805,6.029,13.2963,4.59961,2470.087,2020-1-21T16:15:09Z
2020-01-21T14:17:39Z,42.805,6.029,13.2967,4.59962,2470.077,2020-1-21T16:18:12Z
2020-01-21T14:20:42Z,42.805,6.029,13.2963,4.59961,2470.087,2020-1-21T16:21:15Z
2020-01-21T14:23:45Z,42.805,6.029,13.2964,4.59963,2470.063,2020-1-21T16:24:18Z
2020-01-21T14:26:49Z,42.805,6.029,13.2964,4.59964,2470.063,2020-1-21T16:27:22Z
2020-01-21T14:29:52Z,42.805,6.029,13.2966,4.59961,2470.087,2020-1-21T16:30:25Z
2020-01-21T14:32:55Z,42.805,6.029,13.2968,4.59963,2470.11,2020-1-21T16:33:28Z
2020-01-21T14:35:58Z,42.805,6.029,13.2964,4.59962,2470.049,2020-1-21T16:36:31Z
2020-01-21T14:39:02Z,42.805,6.029,13.2965,4.59962,2470.087,2020-1-21T16:39:35Z
2020-01-21T14:42:05Z,42.805,6.029,13.2966,4.59963,2470.087,2020-1-21T16:42:38Z
2020-01-21T14:45:08Z,42.805,6.029,13.2963,4.59962,2470.053,2020-1-21T16:45:41Z
2020-01-21T14:48:12Z,42.805,6.029,13.2967,4.59962,2470.11,2020-1-21T16:48:44Z
2020-01-21T14:51:15Z,42.805,6.029,13.2968,4.59963,2470.11,2020-1-21T16:51:48Z
2020-01-21T14:54:18Z,42.805,6.029,13.2963,4.59962,2470.063,2020-1-21T16:54:51Z
2020-01-21T14:57:21Z,42.805,6.029,13.2963,4.59962,2470.1,2020-1-21T16:57:54Z
2020-01-21T15:00:24Z,42.805,6.029,13.2961,4.59961,2470.11,2020-1-21T17:00:57Z
2020-01-21T15:03:28Z,42.805,6.029,13.2965,4.59963,2470.087,2020-1-21T17:04:01Z
2020-01-21T15:06:31Z,42.805,6.029,13.2966,4.59961,2470.124,2020-1-21T17:07:04Z
2020-01-21T15:09:34Z,42.805,6.029,13.2962,4.59961,2470.1,2020-1-21T17:10:07Z
2020-01-21T15:12:37Z,42.805,6.029,13.2964,4.59961,2470.087,2020-1-21T17:13:10Z
2020-01-21T15:15:41Z,42.805,6.029,13.2964,4.59961,2470.11,2020-1-21T17:16:14Z